Время (UTC), дата Ветер
(°,м/с) 
Видим.   Явления Облачность Т
(°С)
Тd
(°С)
f(%) Тe
(°С)
Pmin
(гПа)
dP
(гПа)
Po
(мм)
O2
(г/м3)
Тmin Tmax R s Состояние
почвы
00 01.01.16 070 (В) 4000 м    10/3 200 м средняя 
[St|As trans]
-14.1 -15.4 90 -14  1024  724  309           
03 01.01.16 тихо ()   4000 м  слаб. снег  10/5 200 м средняя 
[St|As op]
-14.4 -15.7 90 -14  1024.2  0.2  724  309  -15.7    0.3  25  равномерный
сухой снег
100% 
06 01.01.16 080 (В) 4000 м  слаб. снег  10/5 200 м средняя 
[As op]
-13.8 -15.1 90 -16  1025  0.9  725  309           
09 01.01.16 110 (В) 4000 м  дымка{снег}  6/0 верхняя 
[Ci fib]
-12.7 -14.5 86 -16  1025.4  0.5  725  308           
12 01.01.16 110 (В) 20000 м  {снег}  6/0 верхняя 
[Ci fib]
-12.8 -14.6 86 -16  1025.7  0.3  725  308           
15 01.01.16 090 (В) 20000 м    8/3 600 м средняя 
[Sc|Ac trans]
-15 -17 85 -20  1026.9  0.7  726  311    -2.5  0.4     
18 01.01.16 110 (В) 10 км  слаб. снег  10/10 300 м 
[Frnb|Ns]
-15.8 -17.9 84 -18  1027.3  0.2  726  312           
21 01.01.16 070 (В) 10 км  слаб. снег  10/10 300 м 
[Frnb|Ns]
-14.7 -16.7 85 -15  1026.6  -0.5  726  310           
00 02.01.16 050 (СВ) 10 км  слаб. снег  10/10 300 м 
[Frnb|Ns]
-14.6 -16.6 85 -15  1027.1  0.5  726  310           
03 02.01.16 110 (В) 10 км  слаб. снег  10/10 300 м 
[Frnb|Ns]
-15.8 -17.9 84 -16  1027.2  -0.1  726  312  -16.2    0.4  26  равномерный
сухой снег
100% 
06 02.01.16 090 (В) 4000 м  слаб. снег  10/5 300 м средняя 
[As op]
-14.4 -1.6 100 -18  1019.8  -0.4  726  309           
09 02.01.16 120 (ЮВ) 10 км  слаб. снег  10/6 600 м средняя 
[Sc|Ac und]
-12 -13.8 86 -15  1026  0.2  726  307           
12 02.01.16 120 (ЮВ) 20000 м  {снег}  3/0 верхняя 
[Ci fib]
-11.9 -13.7 86 -15  1025.9  -0.1  726  307           
15 02.01.16 140 (ЮВ) 20000 м  [диам. изморози 0 мм]  3/0 средняя 
[Ac trans]
-16.5 -18.6 84 -19  1026.7  -0.2  725  312      0.0     
18 02.01.16 180 (Ю) 20000 м  [диам. изморози 17 мм]  ясно 
-17.1 -19.4 82 -17  1026.1  -0.7  725  313           
21 02.01.16 тихо ()   4000 м  [диам. изморози 18 мм]  ясно 
-19 -21.5 81 -19  1025.3  -1.2  724  315           
00 03.01.16 тихо ()   4000 м  [диам. изморози 19 мм]  ясно 300 м 
-18.2 -20.7 81 -18  1024.1  -0.9  723  314           
03 03.01.16 тихо ()   20000 м  [диам. изморози 21 мм]  8/0 средняя, верхняя 
[Ac trans|Ci fib]
-13.3 -15.2 86 -13  1022.3  -0.6  723  307  -21.5      20  равномерный
сухой снег
100% 
06 03.01.16 330 (СЗ) 20000 м    10/3 1000 м средняя 
[Sc|Ac und]
-13.1 -15 86 -13  1021.9  -0.3  723  307           
09 03.01.16 340 (С) 10 км  [диам. изморози 22 мм]  10/3 300 м средняя 
[Sc|As op]
-11.6 -13.4 86 -14  1020.5  -1  722  305           
12 03.01.16 280 (З) 4000 м  слаб. снег [диам. изморози 22 мм]  10/5 300 м средняя 
[St|As op]
-13.6 -15.9 83 -20  1021.7  0.7  722  308           
15 03.01.16 270 (З) 20000 м  слаб. снег  10/0 средняя 
[As op]
-16.5 -19 81 -22  1024  1.5  723  312    -11.2  0.0     
18 03.01.16 270 (З) 7-11{12}  10 км  {снег}  3/0 средняя 
[Ac trans]
-17.7 -20.3 80 -25  1025.4  724  314           
21 03.01.16 260 (З) 6{11}  10 км  слаб. снег  10/3 200 м средняя 
[St|As op]
-17 -19.3 82 -24  1025.4  0.2  724  313           
00 04.01.16 290 (З) 20000 м  {снег}  ясно 
-18.4 -20.5 84 -23  1025.4  -0.4  724  314           
03 04.01.16 220 (ЮЗ) 20000 м    ясно 
-20.1 -22.6 80 -24  1024.8  -0.9  723  316  -21.4    0.0  20  равномерный
сухой снег
100% 
06 04.01.16 220 (ЮЗ) 20000 м    3/0 средняя 
[Ac trans]
-17.5 -19.8 82 -21  1022.8  -1.3  722  312           
09 04.01.16 090 (В) 20000 м    4/0 верхняя 
[Ci fib]
-13.6 -17.9 70 -16  1019.9  -1.9  721  307           
12 04.01.16 110 (В) 20000 м    8/0 средняя, верхняя 
[Ac trans|Ci fib]
-14.7 -18.6 72 -18  1019.2  -0.8  720  308           
15 04.01.16 150 (ЮВ) 20000 м    10/0 средняя, верхняя 
[Ac und|Ci fib]
-14.2 -18.3 71 -18  1018.6  -0.5  720  307    -11.8       
18 04.01.16 120 (ЮВ) 5{10}  20000 м    10/6 600 м средняя 
[Sc|Ac und]
-10.3 -12.8 82 -15  1016.8  -0.8  719  302           
21 04.01.16 120 (ЮВ) 7{10}  20000 м    10/8 600 м средняя 
[Sc|Ac und]
-7.1 -9.8 81 -12  1014.1  -1.9  718  298           
00 05.01.16 110 (В) 8-10{13}  20000 м  в посл. час ливневой снег  10/8 600 м кучево-дожд., средняя 
[Cb calv|Ac und]
-8.1 -9.9 87 -14  1012.5  -1.6  717  299           
03 05.01.16 150 (ЮВ) 5{13}  20000 м    10/8 600 м кучево-дожд., средняя 
[Cb calv|Ac und]
-7.1 -12.1 67 -11  1012.1  -0.3  717  297  -14.1    0.3  18  равномерный
сухой снег
100% 
06 05.01.16 120 (ЮВ) 20000 м    10/4 600 м средняя 
[Sc|Ac und]
-6.6 -11.1 70 -11  1011.9  716  297           
09 05.01.16 140 (ЮВ) 6{10}  20000 м    10/6 1000 м средняя 
[Sc|As op]
-7.2 -11.8 70 -12  1011.1  -0.9  716  297           
12 05.01.16 140 (ЮВ) 20000 м    8/0 средняя, верхняя 
[Ac trans|Ci fib]
-6.4 -11.3 68 -10  1010.3  -0.6  715  296           
15 05.01.16 140 (ЮВ) 20000 м    10/3 1000 м средняя 
[Sc|As op]
-6.5 -8.3 87 -11  1010.2  0.1  715  296    -6.2       
18 05.01.16 130 (ЮВ) 20000 м    10/4 300 м средняя 
[St|Ac und]
-6.3 -7.4 92 -10  1009.4  -0.7  715  295           
21 05.01.16 150 (ЮВ) 20000 м    10/8 1000 м средняя 
[Sc|Ac und]
-5.4 -6.8 90 -10  1008.7  -0.4  714  294           
00 06.01.16 130 (ЮВ) 10 км  в посл. час переохл. осадки (гололёд){дождь} [диам. гололёда 3 мм]  10/10 100 м 
[Frnb|Ns]
-3.6 -4.6 93 -6  1008.6  0.3  715  292           
03 06.01.16 140 (ЮВ) 20000 м  слаб. переохл. дождь (гололёд) [диам. гололёда 4 мм]  10/10 600 м 
[Ns]
-2.2 -3.4 91 -5  1009.5  1.1  715  291  -7.1    15  равномерный
мокрый или
старый снег
100% 
06 06.01.16 230 (ЮЗ) 20000 м  {дождь} [диам. гололёда 4 мм]  8/5 600 м средняя 
[Sc|Ac trans]
+0.8 -1 88 -1  1011.1  2.2  717  288           
09 06.01.16 270 (З) 10-15{17}  4000 м  дымка  10/10 200 м 
[St]
-0.9 -2.2 91 -6  1013.2  1.6  718  291           
12 06.01.16 290 (З) 6-10{16}  10 км  в посл. час туман  9/9 200 м 
[St]
-0.4 -1.3 94 -4  1015.4  2.1  720  291           
15 06.01.16 300 (СЗ) 6{10}  20000 м    8/8 200 м 
[St]
-0.6 -1.9 91 -4  1016.7  1.2  721  291    +2.5  0.3     
18 06.01.16 280 (З) 20000 м    10/10 200 м 
[St]
-0.8 -2.2 90 -2  1016.7  0.1  721  291           
21 06.01.16 180 (Ю) 10 км    10/10 200 м 
[St]
-3.4 -4.4 93 -5  1015.9  -1.2  720  294           
00 07.01.16 110 (В) 10 км    ясно 
-3 -3.9 94 -4  1014.8  -1  719  293           
03 07.01.16 150 (ЮВ) 4000 м  дымка  10/4 200 м средняя 
[St|Ac und]
-2.4 -3.2 94 -3  1013.5  -1  718  292  -3.8      13  равномерный
мокрый или
старый снег
100% 
06 07.01.16 120 (ЮВ) 4000 м  дымка  10/6 300 м 
[Sc diur, vesp]
-0.9 -1.7 94 -3  1012.3  -0.8  718  290           
09 07.01.16 110 (В) 4000 м  дымка{дождь} [диам. гололёда 1 мм]  10/4 300 м 
[Sc]
-0.1 -1.1 93 -3  1009.7  -0.8  716  289           
12 07.01.16 130 (ЮВ) 20000 м  {дождь}  10/6 600 м средняя 
[Sc|Ac und]
+0.9 -1.4 85 -2  1007.2  -2.2  714  287           
15 07.01.16 120 (ЮВ) 5{11}  20000 м  слаб. дождь  10/5 600 м средняя 
[Sc|Ac trans]
+0.3 -1.1 90 -3  1006.7  -0.6  714  287    +1.5  0.0     
18 07.01.16 130 (ЮВ) 20000 м  {дождь}  10/4 1000 м средняя 
[Sc|Ac und]
+0.5 -2.2 82 -3  1005.3  -1.3  713  287           
21 07.01.16 120 (ЮВ) 6{11}  20000 м    10/4 1000 м средняя 
[Sc|Ac und]
-1.2 -2.3 92 -5  1004.2  -1.4  712  288           
00 08.01.16 140 (ЮВ) 6{10}  10 км    10/10 200 м 
[St]
-1.6 -2.4 94 -5  1003.2  -1  711  288           
03 08.01.16 130 (ЮВ) 10 км    10/6 200 м средняя 
[St|Ac und]
-1.5 -2.3 94 -5  1002.3  -0.9  710  288  -1.8    0.0  10  равномерный
мокрый или
старый снег
100% 
06 08.01.16 130 (ЮВ) 4000 м  дымка  10/10 200 м 
[St]
-1.4 -2.2 94 -5  1002.2  710  288           
09 08.01.16 130 (ЮВ) 2000 м  дымка  10/10 100 м 
[St]
-0 -1 93 -3  1000.8  -1  710  286           
12 08.01.16 120 (ЮВ) 0400 м  туман  ?/?  
+0.2 -0.6 94 -2  1000.5  -0.3  710  286           
15 08.01.16 330 (СЗ) 4000 м  дымка{туман}  10/3 300 м средняя 
[Sc|Ac und]
+0.5 -0.3 94 -1  1001.6  1.1  710  286    +0.5       
18 08.01.16 260 (З) 20000 м  {снег, туман}  10/6 300 м средняя 
[St|Ac trans]
+1.2 +0.3 94 -1  1002.6  1.1  711  285           
21 08.01.16 280 (З) 9-13{13}  2000 м  дымка{дождь}  10/10 200 м 
[St]
+2.8 +1.9 94 -1  1004.2  1.8  713  284           
00 09.01.16 280 (З) 10-16{16}  20000 м  {дождь}  4/4 300 м 
[St]
+2.2 +0.2 87 -2  1005.3  0.9  713  285           
03 09.01.16 280 (З) 8-13{16}  20000 м    10/10 300 м 
[St]
+1.6 -0.2 88 -2  1006.6  1.1  714  286  -0.7    0.0  равномерный
мокрый или
старый снег
100% 
06 09.01.16 270 (З) 9-15{16}  10 км    10/10 100 м 
[St]
-0.4 -1.3 94 -5  1008.3  1.2  715  289           
09 09.01.16 280 (З) 15-23{23}  10 км    8/8 300 м 
[St]
+1.5 -0.8 85 -4  1008.5  0.6  715  287           
12 09.01.16 280 (З) 12-18{23}  20000 м    10/8 300 м средняя 
[St|Ac und]
+0.9 -1 87 -4  1010.4  1.7  717  288           
15 09.01.16 280 (З) 8-13{19}  20000 м    6/3 300 м средняя 
[Sc|Ac trans]
+0.1 -2.8 81 -4  1012.6  1.9  718  289    +1.8       
18 09.01.16 260 (З) 12-17{19}  20000 м  в посл. час снег  5/5 300 м 
[Sc]
+0.2 -2.6 81 -5  1013.4  0.7  719  290           
21 09.01.16 270 (З) 11-16{21}  20000 м    4/4 300 м 
[Sc]
-0.2 -2.8 83 -5  1014.4  0.8  719  290           
00 10.01.16 270 (З) 8-11{16}  10 км  слаб. ливневой снег  10/8 200 м кучево-дожд., средняя 
[Cb cap|Ac und]
+0.7 -2.3 80 -3  1015  0.7  720  289           
03 10.01.16 280 (З) 10-14{16}  10 км  в посл. час ливневой снег  10/8 200 м кучево-дожд., средняя 
[Cb cap|Ac und]
-0.1 -1 94 -5  1015  -0.1  720  290  -0.4    равномерный
мокрый или
старый снег
100% 
06 10.01.16 280 (З) 8-11{15}  20000 м  {ливн. осадки}  9/5 300 м кучево-дожд., средняя 
[Cb calv|Ac trans]
+0.4 -2.3 82 -4  1016.2  1.2  721  290           
09 10.01.16 280 (З) 8-11{13}  20000 м    9/5 600 м кучево-дожд., средняя 
[Cb calv|Ac trans]
+1.7 -2.8 72 -2  1016.3  0.4  721  289           
12 10.01.16 280 (З) 5{13}  20000 м    9/6 300 м кучево-дожд., средняя 
[Cb calv|Ac trans]
+2 -2.5 72 -1  1016.8  0.5  721  289           
15 10.01.16 270 (З) 20000 м    10/3 600 м средняя 
[Sc diur, vesp|Ac und]
+0.5 -2.2 82 1017.6  0.5  722  290    +2.2  0.0     
18 10.01.16 190 (Ю) 20000 м    10/4 1000 м средняя 
[Sc|Ac und]
+1.3 -1.3 83 +2  1017.9  0.4  722  290           
21 10.01.16 220 (ЮЗ) 20000 м    10/4 1000 м средняя 
[Sc|Ac und]
+1.8 -1.4 79 1017.3  -0.5  722  289           
00 11.01.16 260 (З) 20000 м    10/3 1000 м средняя 
[Sc|Ac und]
+2.6 -1.9 72 +2  1016.6  -0.5  721  288           
03 11.01.16 160 (Ю) 20000 м  слаб. дождь  10/5 1000 м средняя 
[Sc|Ac und]
+2.7 -2 71 +3  1016.1  -0.5  721  288  -0.7    0.0  равномерный
мокрый или
старый снег
100% 
06 11.01.16 130 (ЮВ) 20000 м  слаб. дождь  10/6 300 м средняя 
[Sc|Ac und]
+2 -0.4 84 +1  1017.1  0.8  722  289           
09 11.01.16 110 (В) 10 км  слаб. дождь  10/6 600 м средняя 
[Sc|Ac und]
+1.3 +0 91 -1  1016.8  -0.4  721  289           
12 11.01.16 110 (В) 10 км  слаб. дождь  10/8 600 м средняя 
[Sc|Ac und]
+2 +1 93 +1  1015.5  -1.1  720  288           
15 11.01.16 100 (В) 10 км  слаб. дождь  10/6 600 м средняя 
[Sc|Ac und]
+1.2 +0.2 93 -2  1016.3  0.6  721  289    +3.2     
18 11.01.16 140 (ЮВ) 4000 м  слаб. ливневой дождь со снегом  10/8 300 м кучево-дожд., средняя 
[Cb cap|Ac und]
+0.8 -0.1 94 -2  1016.7  0.3  721  290           
21 11.01.16 140 (ЮВ) 4{10}  20000 м  {ливн. осадки}  10/6 600 м кучево-дожд., средняя 
[Cb calv|Ac und]
+0.7 -0.5 92 -2  1015.8  -0.8  720  290           
00 12.01.16 130 (ЮВ) 20000 м  слаб. дождь{ливн. осадки}  10/5 600 м средняя 
[Sc diur, vesp|Ac und]
+1.5 -0.1 89 -1  1016.2  0.5  721  289           
03 12.01.16 170 (Ю) 20000 м  {дождь}  10/5 600 м средняя 
[Sc|Ac und]
+1.9 -0.2 86 1015.9  -0.2  721  288  +0.6    мокрый или
старый снег
50-90% 
06 12.01.16 180 (Ю) 20000 м  {дождь}  3/0 верхняя 
[Ci fib]
+3.4 -0.5 76 +2  1015.8  0.2  721  287           
09 12.01.16 150 (ЮВ) 20000 м    5/0 верхняя 
[Ci fib]
+7.8 +2.2 68 +7  1013.6  -1.3  720  282           
12 12.01.16 120 (ЮВ) 20000 м    8/0 средняя, верхняя 
[Ac trans|Ci fib]
+7.9 +2 66 +6  1011.8  -1.7  719  281           
15 12.01.16 140 (ЮВ) 7-11{13}  20000 м    10/0 средняя, верхняя 
[Ac trans|Ci fib]
+5.2 -0.1 69 +2  1011.2  -1.7  718  284    +8.7       
18 12.01.16 120 (ЮВ) 6{13}  20000 м    10/3 1000 м средняя 
[Sc|Ac und]
+3.4 -0.1 78 +1  1010.7  -0.8  717  285           
21 12.01.16 120 (ЮВ) 5{11}  20000 м  в посл. час дождь  10/5 1000 м средняя 
[Sc|Ac und]
+4.4 +0.4 75 +2  1009.5  -1  716  284           
00 13.01.16 140 (ЮВ) 20000 м  {дождь}  10/5 1000 м средняя 
[Sc|Ac und]
+3.6 +0.3 79 +2  1008.5  -1.1  716  284           
03 13.01.16 130 (ЮВ) 20000 м    10/3 600 м средняя 
[Sc|Ac und]
+2.3 +0.3 87 1005.9  -2.7  714  285  +2.2    0.0  <0.5  мокрый или
старый снег
10-40% 
06 13.01.16 070 (В) 20000 м    10/3 1000 м кучево-дожд., средняя 
[Cb calv|Ac und]
+2.9 +0.3 83 +4  1006.1  -2.7  714  284  +2         
09 13.01.16 300 (СЗ) 6-11{11}  20000 м  {ливн. осадки}  10/8 200 м кучево-дожд., средняя 
[Cb calv|Ac und]
+6.6 +5.1 90 +4  1007  1.6  715  280           
12 13.01.16 300 (СЗ) 7-10{14}  10 км  слаб. ливневой дождь  10/8 300 м кучево-дожд., средняя 
[Cb cap|Ac und]
+5.8 +4.4 91 +3  1008.6  1.4  716  282           
15 13.01.16 270 (З) 2{10}  20000 м  слаб. ливневой дождь  10/8 600 м кучево-дожд., средняя 
[Cb cap|Ac und]
+5.2 +4.2 93 +5  1009.8  717  283    +7.1     
18 13.01.16 200 (Ю) 20000 м  слаб. ливневой дождь  10/8 600 м кучево-дожд., средняя 
[Cb cap|Ac und]
+4.4 +3.4 93 +3  1010.5  0.4  717  284           
21 13.01.16 230 (ЮЗ) 20000 м  слаб. ливневой дождь  10/8 600 м кучево-дожд., средняя 
[Cb cap|Ac und]
+4.3 +2.7 89 +3  1010  -0.5  717  284           
00 14.01.16 210 (ЮЗ) 20000 м  слаб. ливневой дождь  10/8 1000 м кучево-дожд., средняя 
[Cb cap|Ac und]
+3.5 +2.2 91 +2  1009.8  -0.3  717  285           
03 14.01.16 240 (ЮЗ) н/о    н/о 
+3.4 +1.7 89 +1  1010.1  0.2  717  285  +3         
06 14.01.16 250 (З) 20000 м    10/6 600 м средняя 
[Sc diur, vesp|Ac und]
+4 +2 87 +2  1011.3  1.3  718  285           
09 14.01.16 260 (З) 20000 м    10/5 1000 м средняя 
[Sc|Ac und]
+5 +3.1 87 +3  1011.5  0.3  718  284           
12 14.01.16 260 (З) 20000 м    8/3 1000 м средняя 
[Sc|Ac trans]
+5.9 +2.6 79 +4  1011.8  0.5  718  283           
15 14.01.16 240 (ЮЗ) 20000 м    4/4 600 м кучево-дожд. 
[Cb calv]
+2.7 +1.4 91 +1  1013.8  1.2  719  287    +6.6       
18 14.01.16 280 (З) 3{13}  20000 м  {ливн. осадки}  3/0 средняя 
[Ac trans]
+2.5 +0.7 88 +1  1015.1  1.2  720  287           
21 14.01.16 290 (З) 2{10}  20000 м  {ливн. осадки}  3/3 1000 м 
[Sc diur, vesp]
+1.9 +0.8 92 +1  1016.4  1.1  721  288           
00 15.01.16 260 (З) 2000 м  дымка{ливн. осадки}  10/10 200 м 
[St]
+2.4 +1.6 94 +1  1017.5  1.1  722  288           
03 15.01.16 260 (З) 10 км    8/5 300 м средняя 
[St|Ac trans]
+1.4 +0.3 92 -1  1018.7  723  290  +1.2       
06 15.01.16 260 (З) 20000 м    6/3 300 м средняя, верхняя 
[Sc|Ac As|Ci fib]
+1.6 -0.3 87 -2  1020.9  724  290  +0.9         
09 15.01.16 260 (З) 20000 м  {ливн. осадки}  10/8 300 м кучево-дожд., средняя 
[Cb cap|Ac und]
+2.8 +0.7 86 +1  1021.4  0.8  725  289           
12 15.01.16 260 (З) 6{10}  20000 м  {ливн. осадки}  4/4 600 м кучево-дожд. 
[Cb cap]
+4.6 -0.1 72 +2  1021.8  0.7  725  287           
15 15.01.16 280 (З) 4{10}  20000 м  в посл. час ливневой дождь  3/3 600 м 
[Sc diur, vesp]
+1.3 -1.5 82 -1  1023.8  1.2  726  291    +4.7     
18 15.01.16 280 (З) 20000 м  {ливн. осадки}  3/0 средняя 
[Ac trans]
-0.4 -1.7 91 -1  1024.9  0.7  727  293           
21 15.01.16 080 (В) 0500 м  туман  4/4 100 м 
[St]
-1.1 -1.9 94 -2  1024.9  0.1  727  294           
00 16.01.16 130 (ЮВ) 0200 м  туман  4/4 100 м 
[St]
-1.3 -2 95 -3  1024.9  0.1  727  294           
03 16.01.16 180 (Ю) 0100 м  туман  ?/?  
-3.4 -4.2 94 -5  1024.3  -1  726  297  -3.4         
06 16.01.16 120 (ЮВ) 1000 м  дымка{туман} [диам. изморози 1 мм]  4/4 100 м 
[St]
-2.2 -3 94 -3  1023.6  -0.4  725  295  -3.6         
09 16.01.16 120 (ЮВ) <0050 м  туман [диам. изморози 1 мм]  ?/?  
+0.2 -0.5 95 -3  1021.7  -0.4  725  292           
12 16.01.16 130 (ЮВ) 9-13{13}  20000 м  {туман} [диам. изморози 1 мм]  8/1 200 м верхняя 
[St|Ci]
+3.7 -0.8 72 1019.5  -1.4  723  288           
15 16.01.16 140 (ЮВ) 9-11{13}  20000 м    6/3 300 м средняя 
[St|Ac As]
+0.1 -1.8 87 -4  1019.6  -0.6  723  291    +3.8       
18 16.01.16 140 (ЮВ) 7{12}  10 км    9/6 200 м средняя 
[St|Ac trans]
+0.3 -1 91 -4  1018.6  -0.9  722  291           
21 16.01.16 140 (ЮВ) 4{12}  10 км    4/4 200 м 
[St]
-0 -0.9 94 -2  1017.1  -1.5  721  291           
00 17.01.16 140 (ЮВ) 3{10}  20000 м    10/3 600 м средняя 
[Sc|Ac und]
+0 -1 93 -2  1016.4  -0.7  721  290           
03 17.01.16 120 (ЮВ) 20000 м    10/3 600 м средняя 
[Sc|Ac und]
-0 -1 93 -2  1015.3  -1  720  290  -0.2         
06 17.01.16 130 (ЮВ) 0200 м  туман  10/5 100 м средняя 
[St|Ac und]
-0.2 -1 94 -2  1015  -0.4  720  290  -0.5         
09 17.01.16 130 (ЮВ) 20000 м  {туман}  10/8 600 м средняя 
[Sc|Ac und]
+2.7 +0.4 85 +1  1012.1  -2.2  718  286           
12 17.01.16 140 (ЮВ) 20000 м  {туман}  10/0 средняя 
[Sc|Ac und]
+3.6 +1.1 84 +2  1010.1  -1.6  717  285           
15 17.01.16 130 (ЮВ) 20000 м    10/5 600 м средняя 
[Sc|Ac und]
+0.8 -0.3 92 -2  1010.1  -0.6  716  288    +3.6       
18 17.01.16 140 (ЮВ) 0400 м  туман  8/8 100 м 
[St]
-0.7 -1.5 94 -3  1009.7  -0.7  716  289           
21 17.01.16 120 (ЮВ) 10 км  {туман}  10/3 200 м средняя 
[St|Ac und]
-0.6 -1.3 95 -3  1008.1  -1.5  715  289           
00 18.01.16 120 (ЮВ) 10 км  {туман}  10/0 средняя 
[Ac und]
-0.2 -1.2 93 -3  1006.8  -1.1  714  288           
03 18.01.16 120 (ЮВ) 10 км    4/0 средняя 
[Ac trans]
-0.9 -1.8 94 -3  1006.2  -0.7  713  288  -1         
06 18.01.16 110 (В) 0600 м  туман  ?/?  
-0.1 -0.8 95 -3  1005  -0.9  713  287           
09 18.01.16 140 (ЮВ) 20000 м  {туман}  9/5 200 м средняя 
[St|Ac trans]
+2.4 +1.7 95 1002.7  -1.7  711  284           
12 18.01.16 110 (В) 10 км  {туман}  9/4 300 м средняя 
[Sc|Ac trans]
+4.3 +2.1 86 +3  1001.4  -0.8  711  282           
15 18.01.16 120 (ЮВ) 10 км    9/3 600 м средняя, верхняя 
[Sc|Ac trans|Ci fib]
+1.7 +0.7 93 -1  1000.9  -0.9  710  284    +4.7       
18 18.01.16 080 (В) 20000 м    5/0 средняя 
[Ac trans]
+1.8 -0.3 86 +1  999.2  -1.6  709  284           
21 18.01.16 300 (СЗ) 20000 м    8/0 средняя 
[Ac trans]
+7.9 -0.7 54 +6  998.9  0.8  709  278           
00 19.01.16 320 (СЗ) 20000 м    4/0 средняя 
[Ac trans]
+6 +0.8 69 +5  999.9  0.6  710  280           
03 19.01.16 180 (Ю) 20000 м    3/0 средняя 
[Ac trans]
+1 -1.5 83 1000.9  710  285  +0.9         
06 19.01.16 200 (Ю) 20000 м    8/0 средняя 
[Ac trans]
+5.3 +2 79 +5  1001.2  1.1  711  281           
09 19.01.16 290 (З) 10 км  слаб. дождь  10/10 300 м 
[Ns]
+6 +4.6 91 +6  1001.9  0.8  711  280           
12 19.01.16 300 (СЗ) 6{11}  10 км  слаб. дождь  10/10 600 м 
[Ns]
+3.3 +2.1 92 1003.8  1.3  712  283           
15 19.01.16 280 (З) 5{11}  10 км  слаб. ливневой дождь со снегом  10/8 300 м кучево-дожд., средняя 
[Cb calv|Ac und]
+0.8 -0.8 89 -2  1007.2  2.6  714  287    +6.8     
18 19.01.16 280 (З) 8-12{12}  10 км  в посл. час снег{дождь}  10/8 200 м кучево-дожд., средняя 
[Cb calv|Ac und]
-1.6 -2.6 93 -6  1010.3  2.5  716  290           
21 19.01.16 280 (З) 11-16{18}  20000 м    8/8 300 м 
[St]
-3.6 -5.3 88 -10  1013  2.1  718  294           
00 20.01.16 270 (З) 12-17{19}  20000 м    10/10 300 м 
[St]
-4.4 -6.8 83 -11  1017.2  3.8  721  296           
03 20.01.16 290 (З) 10-16{20}  20000 м    9/9 300 м 
[St]
-5.2 -8 81 -11  1020.3  2.8  723  298  -5.3    0.0     
06 20.01.16 270 (З) 11-16{17}  20000 м    3/3 300 м 
[St]
-4.9 -8.1 78 -11  1022.9  2.5  725  298  -5.4         
09 20.01.16 280 (З) 11-16{17}  20000 м    1/0 средняя 
[Ac trans]
-2.1 -8.2 63 -8  1023  0.6  725  295           
12 20.01.16 280 (З) 8-11{16}  20000 м    3/3 600 м 
[Sc]
-1 -7 64 -5  1023.1  0.6  725  294           
15 20.01.16 280 (З) 5{15}  20000 м    3/3 600 м 
[Sc]
-3.3 -6.8 77 -7  1025.6  1.9  727  297    -0.7       
18 20.01.16 240 (ЮЗ) 4{11}  2000 м    9/4 600 м средняя 
[Sc|Ac trans]
-3.5 -7 77 -6  1027.8  728  298           
21 20.01.16 210 (ЮЗ) 20000 м    8/0 средняя 
[Ac trans]
-5.1 -7.6 83 -6  1029.1  0.9  729  300           
00 21.01.16 180 (Ю) 20000 м    10/0 средняя 
[Ac und]
-3.9 -6.3 83 -3  1029  0.1  729  299           
03 21.01.16 100 (В) 20000 м    3/0 средняя 
[Ac trans]
-5.7 -8 84 -8  1029.1  -0.3  729  301  -5.7         
06 21.01.16 110 (В) 20000 м    5/0 верхняя 
[Ci fib]
-3.3 -6.2 80 -6  1028.8  0.3  729  298  -6         
09 21.01.16 120 (ЮВ) 9-12{14}  20000 м    6/0 средняя, верхняя 
[Ac trans|Ci fib]
-0.5 -6.7 63 -5  1026.9  -1.3  728  295           
12 21.01.16 120 (ЮВ) 8-11{15}  20000 м    9/3 1000 м средняя 
[Sc|Ac trans]
-0.7 -7.5 60 -5  1025.7  -1.1  727  294           
15 21.01.16 110 (В) 7{11}  20000 м    10/5 600 м средняя 
[Sc|Ac und]
-1.8 -6.4 71 -6  1025.5  -0.5  727  295    +0.5       
18 21.01.16 100 (В) 6{10}  20000 м    10/6 200 м средняя 
[St|Ac und]
-1.5 -2.8 91 -5  1024.7  -0.6  726  295           
21 21.01.16 120 (ЮВ) 0200 м  туман  ?/?  
-1.2 -2 94 -4  1023.3  -1.3  725  294           
00 22.01.16 160 (Ю) 0400 м  туман [диам. гололёда 1 мм]  ?/?  
-1.1 -1.8 95 -4  1022.8  -0.4  725  293           
03 22.01.16 200 (Ю) 10 км  {туман} [диам. гололёда 1 мм]  10/10 200 м 
[St]
-1.6 -2.3 95 -3  1023.6  0.7  726  294  -1.8         
06 22.01.16 280 (З) 2500 м  снег{туман}  10/10 200 м 
[Ns]
-0.4 -1.2 94 -1  1024.4  726  293           
09 22.01.16 320 (СЗ) 2300 м  снег  10/10 100 м 
[Ns]
+0.1 -0.7 94 -1  1023.9  -0.3  726  292           
12 22.01.16 320 (СЗ) 3000 м  снег  10/10 200 м 
[Ns]
-0.1 -0.9 94 -2  1023.5  -0.4  726  293           
15 22.01.16 360 (С) 4000 м  слаб. снег  10/10 100 м 
[Frnb|Ns]
-0.9 -1.6 95 -3  1024.6  0.8  726  294    +0.2     
Время (UTC), дата Ветер
(°,м/с) 
Видим.   Явления Облачность Т
(°С)
Тd
(°С)
f(%) Тe
(°С)
Pmin
(гПа)
dP
(гПа)
Po
(мм)
O2
(г/м3)
Тmin Tmax R s Состояние
почвы